User: anonymous   Login
Location: Unspecified
(0.0000°N, 0.0000°E)
Time: 22:22:55
(UTC+00:00)
Language:

STARLINK-30447 - Orbit

View from above orbital plane
View from above orbital plane
View from above satellite
View from above satellite

Ground track
Ground track

The orbit is defined by the following mean orbital elements,

1 57874U          26145.45749815 +.00000000 +00000-0 +19624-4 0 00001
2 57874  43.0006 185.9100 0001343 268.2498  91.8200 15.27575813    04
Epoch (UTC): 25 May 2026 10:58:47
Eccentricity: 0.0001343
inclination: 43.0006°
perigee height: 482 km
apogee height: 484 km
right ascension of ascending node: 185.9100°
argument of perigee: 268.2498°
revolutions per day: 15.27575813
mean anomaly at epoch: 91.8200°

The dashed part of the orbit path shows where the satellite is in the earth's shadow,  

DLR